Location: Dompnac
(44.5644°N, 4.1026°E)
Time: 09:49:44
(UTC+00:00)

DMSP B5D2-2 - Pass Details

Date: 19 September 2020
Orbit: 790 x 806 km, 98.3° (Epoch: 29 October)

Event Time Altitude Azimuth Distance (km) Brightness Sun altitude
Rises 19:52:44 0° 11° (N) 3,332 7.5 -22.6°
Reaches altitude 10° 19:55:05 10° 9° (N) 2,397 6.7 -23.0°
Maximum altitude 20:00:21 71° 287° (WNW) 856 4.3 -23.8°
Drops below altitude 10° 20:05:35 10° 204° (SSW) 2,378 6.5 -24.6°
Sets 20:07:55 0° 202° (SSW) 3,303 7.2 -25.0°
